7 * 24
多渠道服务支持
TIANMU-1 17(天目一号17星)是中国研制的天目一号掩星探测星座卫星之一,2024年1月5日于酒泉卫星发射中心,由快舟一号甲运载火箭以“一箭四星”方式成功送入预定轨道。 该卫星属于低轨小型魔方卫星,主要用于获取全球大气环境要素信息,助力建成后实现全球全天候立体化气象探测,为数值天气预报提供精细化数据支撑,此次发射完成后天目一号星座阶段组网顺利收官。
中国
(CN)
| 数据来源 | 国际轨道数据 |
| 星历时间: | 2026-07-27T23:18:37+0800 6小时前 查看轨道信息 |
| 半长轴: | 6862.543km |
| 偏心率: | 0.0004805 |
| 轨道倾角: | 97.464° |
| 近地点辐角 | 197.757° |
| 升交点赤经 | 34.541° |
| 平近点角 | 162.350° |
| 近地点: | 481.108km |
| 远地点: | 487.704km |
| 周期: | 94.295分钟 |
| 每日圈数: | 15.27127 |